Zamboanga, Philippines

1:51 AM +08 on November 25, 2017 (GMT +0800)
Zamboanga International

Weather History for RPMZ - November, 2012

Change the Weather History Date:

Sunday, November 18, 2012

  Actual Average Record
Temperature  
Mean Temperature 85 °F -  
Max Temperature 93 °F 90 °F - ()
Min Temperature 77 °F 73 °F - ()
Cooling Degree Days 20    
Growing Degree Days 35 (Base 50)    
Moisture  
Dew Point 77 °F    
Average Humidity 77    
Maximum Humidity 94    
Minimum Humidity 52    
Precipitation  
Precipitation 0.00 in 0.09 in - ()
Sea Level Pressure  
Sea Level Pressure 29.85 in    
Wind  
Wind Speed 2 mph ()    
Max Wind Speed 5 mph    
Max Gust Speed -    
Visibility 6.2 miles    
Events Rain    
T = Trace of Precipitation, MM = Missing Value Source: Averaged Metar Reports

Daily Weather History Graph

Daily Weather History Graph

Search for Another Location

Airport or City:

Trip Planner

Search our weather history database for the weather conditions in past years. The results will help you decide how hot, cold, wet, or windy it might be!

Date:

Astronomy

Nov. 18, 2012 Rise Set
Actual Time 5:42 AM +08 5:30 PM +08
Civil Twilight 5:20 AM +08 5:52 PM +08
Nautical Twilight 4:55 AM +08 6:18 PM +08
Astronomical Twilight 4:30 AM +08 6:43 PM +08
Moon 9:50 AM +08 (11/18) 10:00 PM +08 (11/18)
Length of Visible Light 12h 31m
Length of Day
11h 47m
Waxing Crescent, 24% of the Moon is Illuminated
Nov 18
Waxing Crescent
Nov 20
First Quarter
Nov 28
Full
Dec 6
Last Quarter
Dec 13
New

Hourly Weather History & Observations

Time (+08) Temp. Heat Index Dew Point Humidity Pressure Visibility Wind Dir Wind Speed Gust Speed Precip Events Conditions
2:00 AM 79 °F - 75 °F 85% 29.84 in 6 mi WSW 2.2 mph - -   Haze
2:00 AM 78.8 °F - 75.2 °F 89% 29.83 in 6.2 mi WSW 2.3 mph - N/A   Scattered Clouds
5:00 AM 80 °F - 75 °F 82% 29.84 in 6 mi Calm Calm - -   Haze
5:00 AM 80.6 °F 86.2 °F 75.2 °F 84% 29.83 in 6.2 mi Calm Calm - N/A   Overcast
6:00 AM 78.8 °F - 75.2 °F 89% 29.86 in 6.2 mi Calm Calm - N/A Rain Light Rain Showers
7:00 AM 77.0 °F - 75.2 °F 94% 29.89 in 6.2 mi Calm Calm - N/A Rain Light Rain
8:00 AM 80 °F - 77 °F 86% 29.89 in 6 mi NE 4.5 mph - - Rain Light Rain Showers
8:00 AM 78.8 °F - 77.0 °F 94% 29.89 in 6.2 mi NE 4.6 mph - N/A Rain Light Rain Showers
9:00 AM 84.2 °F 96.1 °F 78.8 °F 84% 29.92 in 6.2 mi Calm Calm - N/A   Scattered Clouds
10:00 AM 86.0 °F 99.3 °F 78.8 °F 79% 29.89 in 6.2 mi SSE 4.6 mph - N/A   Partly Cloudy
11:00 AM 89 °F - 80 °F 67% 29.86 in 6 mi SSE 4.5 mph - -   Haze
11:00 AM 89.6 °F 104.7 °F 78.8 °F 70% 29.89 in 6.2 mi SSE 4.6 mph - N/A   Partly Cloudy
12:00 PM 91.4 °F 111.0 °F 80.6 °F 71% 29.86 in 6.2 mi East 4.6 mph - N/A   Partly Cloudy
1:00 PM 91.4 °F 105.1 °F 77.0 °F 63% 29.83 in 6.2 mi NE 4.6 mph - N/A   Partly Cloudy
2:00 PM 93 °F - 77 °F 52% 29.80 in 7 mi NE 4.5 mph - -   Haze
2:00 PM 93.2 °F 107.2 °F 77.0 °F 59% 29.80 in 6.2 mi NE 4.6 mph - N/A   Partly Cloudy
3:00 PM 93.2 °F 110.2 °F 78.8 °F 63% 29.80 in 6.2 mi Calm Calm - N/A   Partly Cloudy
4:00 PM 93.2 °F 110.2 °F 78.8 °F 63% 29.80 in 6.2 mi Calm Calm - N/A   Partly Cloudy
5:00 PM 90 °F - 77 °F 59% 29.80 in 7 mi Calm Calm - -   Scattered Clouds
5:00 PM 89.6 °F 102.2 °F 77.0 °F 66% 29.80 in 6.2 mi Calm Calm - N/A   Scattered Clouds
6:00 PM 86.0 °F 96.9 °F 77.0 °F 74% 29.83 in 6.2 mi Calm Calm - N/A   Scattered Clouds
8:00 PM 83 °F - 79 °F 84% 29.84 in 6 mi Calm Calm - -   Haze
8:00 PM 82.4 °F 92.4 °F 78.8 °F 89% 29.86 in 6.2 mi Calm Calm - N/A   Mostly Cloudy
11:00 PM 79 °F - 76 °F 86% 29.85 in 6 mi Calm Calm - -   Haze
11:00 PM 78.8 °F - 75.2 °F 89% 29.86 in 6.2 mi Calm Calm - N/A   Mostly Cloudy